1534806001.17,17965,22.0,74570.0,7.03,-6.89,-11.23,0,*43
1534806002.44,17966,22.0,74572.0,7.03,-7.01,-11.29,0,*4B
1534806003.68,17967,22.0,74574.0,7.05,-6.93,-11.29,0,*46
1534806004.95,17968,22.0,74572.0,7.03,-7.01,-11.37,0,*4A
1534806006.2,17969,22.0,74570.3,7.03,-7.05,-11.41,0,*4E
1534806007.45,17970,22.0,74572.0,7.03,-7.11,-11.29,0,*4D
1534806008.72,17971,22.0,74572.8,7.03,-7.05,-11.37,0,*46
1534806009.98,17972,22.0,74574.5,7.03,-7.05,-11.37,0,*45
1534806011.23,17973,22.0,74572.5,7.03,-7.11,-11.29,0,*4E
1534806012.5,17974,22.0,74570.0,7.03,-7.05,-11.37,0,*43
1534806013.72,17975,22.0,74568.5,7.03,-7.23,-11.41,0,*47
1534806014.97,17976,22.0,74570.5,6.99,-7.23,-11.59,0,*4F
1534806016.24,17977,22.0,74570.5,7.03,-7.35,-11.59,0,*4B
1534806017.49,17978,22.0,74570.3,7.03,-7.23,-11.55,0,*4F
1534806018.71,17979,22.0,74572.0,7.03,-7.23,-11.45,0,*4F
1534806019.93,17980,22.0,74574.3,7.03,-7.23,-11.41,0,*4D
1534806021.17,17981,22.0,74572.8,6.99,-7.27,-11.45,0,*4E
1534806022.44,17982,22.0,74572.3,6.99,-7.27,-11.51,0,*48
1534806023.67,17983,22.0,74572.8,6.99,-7.23,-11.41,0,*4C
1534806024.91,17984,22.0,74576.8,6.99,-7.27,-11.41,0,*4F
1534806026.16,17985,22.0,74578.3,6.99,-7.35,-11.45,0,*49
1534806027.4,17986,22.0,74572.5,6.99,-7.35,-11.45,0,*4A
1534806028.65,17987,22.0,74572.8,7.03,-7.35,-11.45,0,*49
1534806029.89,17988,22.0,74574.3,6.99,-7.39,-11.45,0,*48
1534806031.16,17989,22.0,74572.5,7.03,-7.43,-11.55,0,*47
1534806032.41,17990,22.0,74572.5,6.99,-7.49,-11.63,0,*42
1534806033.68,17991,22.0,74574.3,7.03,-7.43,-11.59,0,*42
1534806034.92,17992,22.0,74576.8,6.99,-7.39,-11.45,0,*43
1534806036.18,17993,22.0,74572.5,6.99,-7.39,-11.51,0,*47
1534806037.4,17994,22.0,74576.3,6.99,-7.23,-11.45,0,*4E
1534806038.66,17995,22.0,74574.0,7.03,-7.31,-11.37,0,*4B
1534806039.91,17996,22.0,74568.3,7.03,-7.23,-11.29,0,*44
1534806041.18,17997,22.0,74572.0,7.03,-7.31,-11.37,0,*49
1534806042.42,17998,22.0,74572.8,7.03,-7.23,-11.37,0,*45
1534806043.67,17999,22.0,74572.5,7.03,-7.23,-11.29,0,*4B
1534806044.93,18000,22.0,74572.0,7.03,-7.35,-11.37,0,*45
1534806046.18,18001,22.0,74568.0,6.99,-7.39,-11.41,0,*4B
1534806047.44,18002,22.0,74572.8,6.99,-7.39,-11.51,0,*49
1534806048.68,18003,22.0,74568.5,6.99,-7.49,-11.51,0,*4F
1534806049.92,18004,22.0,74574.3,7.03,-7.49,-11.55,0,*4E
1534806051.19,18005,22.0,74574.8,7.03,-7.61,-11.59,0,*49
1534806052.46,18006,22.0,74572.8,6.99,-7.61,-11.59,0,*48
1534806053.7,18007,22.0,74576.5,6.99,-7.49,-11.51,0,*4B
1534806054.92,18008,22.0,74574.3,6.99,-7.49,-11.45,0,*41
1534806056.14,18009,22.0,74574.5,6.99,-7.49,-11.41,0,*44
1534806057.38,18010,22.0,74572.0,6.99,-7.49,-11.33,0,*49
1534806058.61,18011,22.0,74570.0,6.99,-7.49,-11.33,0,*48
1534806059.85,18012,22.0,74572.0,6.99,-7.49,-11.33,0,*4B
1534806061.09,18013,22.0,74572.5,6.99,-7.49,-11.33,0,*4A
1534806062.31,18014,22.0,74572.0,6.99,-7.53,-11.45,0,*47
1534806063.55,18015,22.0,74568.5,6.99,-7.53,-11.51,0,*43
1534806064.82,18016,22.0,74568.0,7.03,-7.43,-11.37,0,*43
1534806066.06,18017,22.0,74568.5,7.03,-7.49,-11.29,0,*47
1534806067.3,18018,22.0,74570.8,7.03,-7.49,-11.37,0,*47
1534806068.55,18019,22.0,74570.0,7.03,-7.57,-11.41,0,*48
1534806069.8,18020,22.0,74568.3,7.05,-7.69,-11.55,0,*4C
1534806071.06,18021,22.0,74568.5,7.03,-7.69,-11.59,0,*47
1534806072.33,18022,22.0,74570.8,7.03,-7.69,-11.55,0,*48
1534806073.61,18023,22.0,74566.5,7.03,-7.73,-11.55,0,*42
1534806074.86,18024,22.0,74566.5,7.03,-7.83,-11.67,0,*4B
1534806076.1,18025,22.0,74564.8,7.03,-7.87,-11.67,0,*4E
1534806077.35,18026,22.0,74566.0,7.03,-7.87,-11.67,0,*4D
1534806078.62,18027,22.0,74564.5,7.03,-7.95,-11.73,0,*4A
1534806079.89,18028,22.0,74564.8,7.03,-7.95,-11.67,0,*40
1534806081.16,18029,22.0,74568.0,7.03,-7.95,-11.67,0,*41
1534806082.43,18030,22.0,74566.5,7.03,-7.95,-11.67,0,*49
1534806083.69,18031,22.0,74570.5,6.99,-8.03,-11.77,0,*4B
1534806084.96,18032,22.0,74570.3,6.99,-7.77,-11.59,0,*48
1534806086.21,18033,22.0,74566.8,7.03,-7.73,-11.45,0,*42
1534806087.46,18034,22.0,74568.8,7.03,-7.69,-11.41,0,*4A
1534806088.71,18035,22.0,74566.0,7.03,-7.73,-11.45,0,*44
1534806089.95,18036,22.0,74564.3,7.03,-7.69,-11.45,0,*4C
1534806091.22,18037,22.0,74570.3,7.03,-7.73,-11.37,0,*43
1534806092.47,18038,22.0,74570.5,7.03,-7.73,-11.41,0,*4D
1534806093.72,18039,22.0,74572.0,7.05,-7.73,-11.37,0,*4B
1534806094.97,18040,22.0,74572.8,7.05,-7.73,-11.37,0,*45
1534806096.19,18041,22.0,74572.5,7.05,-7.87,-11.55,0,*4B
1534806097.38,18042,22.0,74574.3,7.05,-7.83,-11.45,0,*4D
1534806098.58,18043,22.0,74572.0,7.05,-7.83,-11.45,0,*4C
1534806099.85,18044,22.0,74572.8,7.03,-7.99,-11.59,0,*4B
1534806101.09,18045,22.0,74572.0,7.05,-7.99,-11.55,0,*40
1534806102.31,18046,22.0,74570.3,7.05,-7.95,-11.45,0,*4E
1534806103.5,18047,22.0,74574.5,7.05,-7.83,-11.45,0,*48
1534806104.72,18048,22.0,74572.0,7.05,-7.95,-11.41,0,*44
1534806105.94,18049,22.0,74570.3,7.05,-7.87,-11.55,0,*43
1534806107.14,18050,22.0,74564.0,7.05,-7.87,-11.45,0,*4A
1534806108.38,18051,22.0,74566.5,7.05,-8.11,-11.59,0,*46
1534806109.62,18052,22.0,74566.0,7.05,-7.99,-11.59,0,*4A
1534806110.87,18053,22.0,74564.8,7.05,-7.99,-11.55,0,*47
1534806112.12,18054,22.0,74566.5,7.05,-8.11,-11.55,0,*4F
1534806113.36,18055,22.0,74566.5,7.05,-8.11,-11.67,0,*4F
1534806114.58,18056,22.0,74566.0,7.05,-8.17,-11.73,0,*4F
1534806115.8,18057,22.0,74564.3,7.05,-8.25,-11.73,0,*4F
1534806117.02,18058,22.0,74568.3,7.05,-8.17,-11.67,0,*44
1534806118.24,18059,22.0,74566.8,7.05,-8.17,-11.73,0,*40
1534806119.46,18060,22.0,74568.8,7.05,-8.17,-11.67,0,*4F
1534806120.68,18061,22.0,74568.5,7.05,-8.25,-11.73,0,*4A
1534806121.9,18062,22.0,74572.0,7.05,-8.29,-11.73,0,*45
1534806123.12,18063,22.0,74570.8,7.05,-8.25,-11.73,0,*48
1534806124.36,18064,22.0,74568.0,7.03,-8.25,-11.67,0,*4C
1534806125.58,18065,22.0,74572.3,7.05,-8.25,-11.81,0,*43
1534806126.8,18066,22.0,74574.0,7.05,-8.25,-11.73,0,*4D
1534806128.02,18067,22.0,74568.5,7.05,-8.17,-11.55,0,*49
1534806129.24,18068,22.0,74574.8,7.05,-8.11,-11.45,0,*41
1534806130.46,18069,22.0,74570.8,7.05,-8.03,-11.41,0,*47
1534806131.68,18070,22.0,74574.5,7.05,-8.11,-11.45,0,*48
1534806132.9,18071,22.0,74572.0,7.05,-8.11,-11.45,0,*49
1534806134.18,18072,22.0,74576.0,7.07,-8.11,-11.63,0,*4C
1534806135.42,18073,22.0,74572.3,7.07,-8.33,-11.67,0,*49
1534806136.67,18074,22.0,74574.5,7.07,-8.33,-11.63,0,*4A
1534806137.88,18075,22.0,74574.3,7.09,-8.33,-11.67,0,*41
1534806139.1,18076,22.0,74570.3,7.09,-8.37,-11.67,0,*46
1534806140.35,18077,22.0,74568.0,7.07,-8.45,-11.77,0,*4D
1534806141.59,18078,22.0,74570.3,7.07,-8.45,-11.77,0,*42
1534806142.87,18079,22.0,74566.0,7.07,-8.51,-11.89,0,*47
1534806144.11,18080,22.0,74568.5,7.07,-8.59,-11.81,0,*41
1534806145.35,18081,22.0,74570.3,7.07,-8.59,-11.81,0,*40
1534806146.6,18082,22.0,74570.8,7.07,-8.63,-11.93,0,*49
1534806147.84,18083,22.0,74570.5,7.07,-8.59,-11.81,0,*42
1534806149.09,18084,22.0,74568.3,7.07,-8.59,-11.89,0,*4D
1534806150.36,18085,22.0,74570.3,7.07,-8.51,-11.77,0,*45
1534806151.61,18086,22.0,74570.0,7.07,-8.37,-11.77,0,*46
1534806152.85,18087,22.0,74566.5,7.07,-8.45,-11.81,0,*4B
1534806154.12,18088,22.0,74568.0,7.07,-8.51,-11.77,0,*48
1534806155.37,18089,22.0,74564.8,7.07,-8.63,-11.89,0,*49
1534806156.62,18090,22.0,74570.5,7.07,-8.75,-11.93,0,*4D
1534806157.85,18091,22.0,74568.5,7.07,-8.71,-12.03,0,*42
1534806159.07,18092,22.0,74570.0,7.05,-8.85,-11.97,0,*46
1534806160.3,18093,22.0,74568.3,7.05,-8.85,-12.07,0,*4D
1534806161.53,18094,22.0,74568.3,7.05,-8.85,-12.11,0,*4D
1534806162.77,18095,22.0,74564.5,7.05,-8.81,-11.93,0,*41
1534806164.0,18096,22.0,74566.0,7.05,-8.85,-11.97,0,*42
1534806165.22,18097,22.0,74566.3,7.05,-8.75,-11.93,0,*48
1534806166.44,18098,22.0,74566.0,7.05,-8.75,-11.97,0,*43
1534806167.69,18099,22.0,74564.0,7.03,-8.85,-11.97,0,*4B
1534806168.93,18100,22.0,74566.3,7.05,-8.81,-11.97,0,*48
1534806170.16,18101,22.0,74568.3,7.05,-8.85,-11.97,0,*4D
1534806171.38,18102,22.0,74568.5,7.05,-8.93,-11.93,0,*4D
1534806172.63,18103,22.0,74570.0,7.03,-8.75,-11.81,0,*41
1534806173.89,18104,22.0,74566.0,7.03,-8.81,-11.81,0,*4D
1534806175.11,18105,22.0,74568.3,7.05,-8.93,-11.97,0,*4E
1534806176.37,18106,22.0,74570.5,7.03,-8.85,-11.97,0,*4C
1534806177.59,18107,22.0,74568.8,7.05,-8.93,-12.07,0,*46
1534806178.85,18108,22.0,74570.8,7.03,-8.93,-11.93,0,*41
1534806180.09,18109,22.0,74570.3,7.03,-8.97,-12.07,0,*4A
1534806181.32,18110,22.0,74570.8,7.05,-8.93,-11.97,0,*4A
1534806182.54,18111,22.0,74568.5,7.05,-8.93,-11.97,0,*4B
1534806183.77,18112,22.0,74568.5,7.05,-8.93,-11.97,0,*48
1534806184.99,18113,22.0,74570.8,7.05,-8.97,-11.97,0,*4D
1534806186.24,18114,22.0,74568.8,7.03,-9.05,-12.11,0,*4B
1534806187.49,18115,22.0,74570.8,7.03,-9.05,-12.07,0,*4D
1534806188.74,18116,22.0,74572.0,7.03,-9.05,-12.07,0,*4E
1534806189.99,18117,22.0,74568.3,6.99,-9.01,-12.11,0,*4E
1534806191.25,18118,22.0,74566.8,7.03,-8.85,-11.93,0,*47
1534806192.5,18119,22.0,74574.8,7.03,-8.85,-11.93,0,*46
1534806193.75,18120,22.0,74574.3,7.03,-9.05,-11.97,0,*41
1534806194.98,18121,22.0,74576.8,7.05,-9.05,-12.11,0,*4B
1534806196.23,18122,22.0,74572.0,7.03,-9.05,-12.07,0,*49
1534806197.48,18123,22.0,74570.8,7.03,-9.05,-11.93,0,*46
1534806198.73,18124,22.0,74568.3,7.03,-9.05,-11.93,0,*41
1534806199.98,18125,22.0,74572.5,7.03,-9.05,-12.07,0,*4E
1534806201.26,18126,22.0,74568.5,6.99,-9.15,-12.11,0,*49
1534806202.54,18127,22.0,74566.8,6.99,-9.11,-12.15,0,*48
1534806203.79,18128,22.0,74566.8,7.03,-9.05,-11.97,0,*49
1534806205.07,18129,22.0,74570.0,7.03,-9.11,-12.11,0,*40
1534806206.31,18130,22.0,74568.3,7.03,-9.19,-12.11,0,*40
1534806207.57,18131,22.0,74570.8,7.03,-9.05,-11.93,0,*45
1534806208.78,18132,22.0,74570.8,6.97,-9.19,-12.15,0,*4A
1534806210.06,18133,22.0,74568.5,6.99,-9.11,-11.97,0,*44
1534806211.3,18134,22.0,74574.0,6.99,-9.23,-12.15,0,*4B
1534806212.52,18135,22.0,74572.3,6.99,-9.23,-12.25,0,*49
1534806213.75,18136,22.0,74576.8,6.99,-9.27,-12.25,0,*4E
1534806214.99,18137,22.0,74578.8,6.99,-9.27,-12.15,0,*4C
1534806216.27,18138,22.0,74574.5,6.99,-9.11,-11.97,0,*4F
1534806217.55,18139,22.0,74572.0,6.99,-9.15,-12.11,0,*47
1534806218.82,18140,22.0,74574.3,6.99,-9.11,-11.97,0,*40
1534806220.07,18141,22.0,74572.8,6.97,-9.15,-12.07,0,*41
1534806221.35,18142,22.0,74568.3,6.99,-9.11,-11.97,0,*42
1534806222.6,18143,22.0,74568.0,6.99,-9.23,-12.11,0,*4F
1534806223.85,18144,22.0,74568.8,6.99,-9.23,-12.11,0,*48
1534806225.09,18145,22.0,74572.5,6.99,-9.27,-12.11,0,*4D
1534806226.31,18146,22.0,74568.0,6.97,-9.19,-12.07,0,*4A
1534806227.57,18147,22.0,74574.3,6.99,-9.15,-12.03,0,*4D
1534806228.82,18148,22.0,74570.3,6.99,-9.23,-11.97,0,*49
1534806230.06,18149,22.0,74566.5,6.99,-9.27,-12.11,0,*41
1534806231.31,18150,22.0,74570.5,6.99,-9.27,-12.11,0,*49
1534806232.56,18151,22.0,74568.0,6.99,-9.27,-12.11,0,*48
1534806233.78,18152,22.0,74568.8,6.99,-9.23,-12.03,0,*4C
1534806235.0,18153,22.0,74568.8,6.97,-9.31,-12.07,0,*44
1534806236.25,18154,22.0,74568.3,6.97,-9.41,-12.15,0,*47
1534806237.49,18155,22.0,74572.8,6.97,-9.41,-12.15,0,*46
1534806238.76,18156,22.0,74570.0,6.99,-9.41,-12.15,0,*4B
1534806239.98,18157,22.0,74572.0,6.97,-9.31,-12.07,0,*40
1534806241.25,18158,22.0,74576.3,6.99,-9.37,-12.11,0,*40
1534806242.47,18159,22.0,74574.3,6.97,-9.19,-11.93,0,*4A
1534806243.69,18160,22.0,74574.5,6.97,-9.23,-11.97,0,*4D
1534806244.89,18161,22.0,74568.5,6.97,-9.31,-12.03,0,*41
1534806246.11,18162,22.0,74570.3,6.97,-9.27,-12.07,0,*41
1534806247.32,18163,22.0,74570.3,6.97,-9.31,-12.07,0,*47
1534806248.52,18164,22.0,74572.0,6.97,-9.27,-12.03,0,*43
1534806249.8,18165,22.0,74570.8,6.99,-9.11,-11.89,0,*48
1534806251.02,18166,22.0,74570.8,6.97,-9.27,-12.07,0,*45
1534806252.23,18167,22.0,74572.5,6.97,-9.31,-12.07,0,*43
1534806253.49,18168,22.0,74572.3,6.99,-9.41,-12.03,0,*41
1534806254.73,18169,22.0,74572.8,6.99,-9.41,-12.03,0,*40
1534806255.98,18170,22.0,74576.8,6.99,-9.37,-12.03,0,*49
1534806257.2,18171,22.0,74576.8,6.97,-9.31,-12.07,0,*44
1534806258.45,18172,22.0,74576.3,6.99,-9.37,-12.03,0,*4B
1534806259.68,18173,22.0,74576.0,6.97,-9.41,-12.03,0,*45
1534806260.93,18174,22.0,74576.8,6.99,-9.41,-12.03,0,*4C
1534806262.15,18175,22.0,74572.3,6.97,-9.27,-11.93,0,*49
1534806263.37,18176,22.0,74574.5,6.97,-9.19,-11.89,0,*4C
1534806264.61,18177,22.0,74572.3,6.97,-9.15,-11.77,0,*40
1534806265.86,18178,22.0,74574.3,6.97,-9.15,-11.81,0,*46
1534806267.1,18179,22.0,74572.3,6.97,-9.15,-11.81,0,*47
1534806268.35,18180,22.0,74572.8,6.99,-9.01,-11.77,0,*43
1534806269.63,18181,22.0,74574.5,6.99,-9.11,-11.77,0,*43
1534806270.85,18182,22.0,74578.5,6.97,-9.31,-11.89,0,*4D
1534806272.09,18183,22.0,74574.3,6.99,-9.27,-11.97,0,*4A
1534806273.34,18184,22.0,74572.8,6.97,-9.15,-11.77,0,*4C
1534806274.61,18185,22.0,74572.0,6.99,-9.11,-11.73,0,*43
1534806275.87,18186,22.0,74574.0,6.99,-9.23,-11.89,0,*44
1534806277.11,18187,22.0,74574.8,6.99,-9.27,-11.97,0,*4E
1534806278.39,18188,22.0,74572.5,6.99,-9.37,-11.89,0,*4F
1534806279.66,18189,22.0,74574.8,6.99,-9.37,-11.97,0,*41
1534806280.94,18190,22.0,74572.5,6.99,-9.41,-11.89,0,*47
1534806282.19,18191,22.0,74574.5,6.99,-9.37,-12.03,0,*46
1534806283.41,18192,22.0,74572.8,6.97,-9.41,-12.03,0,*4A
1534806284.66,18193,22.0,74578.0,6.99,-9.41,-12.03,0,*45
1534806285.88,18194,22.0,74578.8,6.97,-9.41,-12.03,0,*4C
1534806287.13,18195,22.0,74574.5,6.97,-9.41,-11.93,0,*47
1534806288.4,18196,22.0,74578.0,6.99,-9.37,-11.85,0,*4C
1534806289.62,18197,22.0,74574.5,6.97,-9.31,-11.93,0,*42
1534806290.87,18198,22.0,74574.0,6.99,-9.27,-11.85,0,*43
1534806292.12,18199,22.0,74574.3,6.99,-9.27,-11.89,0,*4E
1534806293.36,18200,22.0,74578.0,6.99,-9.23,-11.85,0,*45
1534806294.58,18201,22.0,74574.3,6.97,-9.27,-11.85,0,*4E
1534806295.86,18202,22.0,74572.5,6.99,-9.37,-11.89,0,*4E
1534806297.1,18203,22.0,74574.0,6.97,-9.15,-11.77,0,*40
1534806298.35,18204,22.0,74574.3,6.99,-9.27,-11.89,0,*49
1534806299.57,18205,22.0,74576.0,6.97,-9.27,-11.89,0,*46
1534806300.82,18206,22.0,74572.0,6.99,-9.27,-11.89,0,*4B
1534806302.1,18207,22.0,74574.8,6.99,-9.41,-11.89,0,*4A
1534806303.32,18208,22.0,74578.0,6.97,-9.27,-11.93,0,*40
1534806304.57,18209,22.0,74578.3,6.99,-9.27,-11.89,0,*44
1534806305.82,18210,22.0,74576.0,6.99,-9.27,-11.85,0,*40
1534806307.04,18211,22.0,74576.3,6.97,-9.31,-11.93,0,*4F
1534806308.31,18212,22.0,74580.3,6.99,-9.41,-11.85,0,*42
1534806309.56,18213,22.0,74582.5,6.97,-9.41,-11.93,0,*4A
1534806310.83,18214,22.0,74572.0,6.99,-9.11,-11.77,0,*4C
1534806312.11,18215,22.0,74572.0,6.99,-9.15,-11.77,0,*49
1534806313.35,18216,22.0,74568.5,6.97,-9.15,-11.81,0,*4D
1534806314.57,18217,22.0,74574.8,6.97,-9.27,-11.81,0,*4D
1534806315.81,18218,22.0,74574.3,6.99,-9.23,-11.77,0,*41
1534806317.03,18219,22.0,74572.8,6.97,-9.31,-11.93,0,*47
1534806318.31,18220,22.0,74574.0,6.99,-9.41,-11.89,0,*4F
1534806319.57,18221,22.0,74578.8,6.99,-9.49,-11.97,0,*49
1534806320.79,18222,22.0,74572.5,6.97,-9.45,-12.03,0,*46
1534806322.01,18223,22.0,74568.8,6.97,-9.41,-12.03,0,*43
1534806323.29,18224,22.0,74570.5,6.99,-9.37,-11.89,0,*4A
1534806324.54,18225,22.0,74574.0,6.97,-9.41,-11.89,0,*44
1534806325.75,18226,22.0,74572.8,6.97,-9.19,-11.81,0,*42
1534806326.99,18227,22.0,74574.5,6.99,-9.23,-11.77,0,*4D
1534806328.24,18228,22.0,74570.3,6.99,-9.27,-11.89,0,*47
1534806329.51,18229,22.0,74570.0,6.99,-9.49,-11.97,0,*41
1534806330.75,18230,22.0,74570.8,6.99,-9.53,-12.03,0,*4C
1534806332.02,18231,22.0,74570.3,6.99,-9.49,-11.97,0,*48
1534806333.26,18232,22.0,74570.8,6.99,-9.53,-12.03,0,*4E
1534806334.51,18233,22.0,74570.8,6.99,-9.49,-12.03,0,*44
1534806335.78,18234,22.0,74574.3,6.99,-9.53,-12.11,0,*4B
1534806337.02,18235,22.0,74574.3,6.99,-9.53,-12.25,0,*4D
1534806338.29,18236,22.0,74572.8,6.99,-9.53,-12.11,0,*49
1534806339.56,18237,22.0,74576.5,6.99,-9.37,-11.97,0,*47
1534806340.82,18238,22.0,74572.0,6.99,-9.53,-11.97,0,*4A
1534806342.06,18239,22.0,74572.3,6.97,-9.53,-12.15,0,*4C
1534806343.33,18240,22.0,74570.3,6.99,-9.37,-11.85,0,*44
1534806344.6,18241,22.0,74574.8,6.99,-9.41,-11.85,0,*44
1534806345.88,18242,22.0,74572.5,6.99,-9.11,-11.73,0,*4B
1534806347.13,18243,22.0,74570.5,7.03,-9.19,-11.67,0,*45
1534806348.38,18244,22.0,74570.3,7.03,-9.23,-11.93,0,*40
1534806349.66,18245,22.0,74574.0,7.03,-9.37,-11.93,0,*44
1534806350.9,18246,22.0,74568.3,6.99,-9.49,-12.03,0,*46
1534806352.17,18247,22.0,74572.0,7.03,-9.37,-11.81,0,*45
1534806353.44,18248,22.0,74570.8,6.99,-9.49,-11.97,0,*46
1534806354.71,18249,22.0,74568.8,6.99,-9.49,-12.11,0,*4A
1534806355.97,18250,22.0,74574.0,7.03,-9.57,-12.07,0,*48
1534806357.23,18251,22.0,74574.8,7.03,-9.57,-12.11,0,*4E
1534806358.5,18252,22.0,74572.8,7.03,-9.45,-11.97,0,*43
1534806359.78,18253,22.0,74576.0,7.03,-9.37,-11.85,0,*44
1534806361.04,18254,22.0,74568.3,7.03,-9.49,-11.97,0,*49
1534806362.31,18255,22.0,74568.5,7.03,-9.45,-11.97,0,*44
1534806363.58,18256,22.0,74568.0,7.03,-9.49,-12.11,0,*46
1534806364.83,18257,22.0,74574.5,7.03,-9.61,-12.21,0,*4E
1534806366.07,18258,22.0,74572.8,7.05,-9.61,-12.11,0,*44
1534806367.28,18259,22.0,74568.0,7.03,-9.67,-12.25,0,*42
1534806368.5,18260,22.0,74570.8,7.03,-9.75,-12.25,0,*4B
1534806369.73,18261,22.0,74570.3,7.03,-9.75,-12.25,0,*4A
1534806370.95,18262,22.0,74564.5,7.03,-9.67,-12.29,0,*46
1534806372.16,18263,22.0,74562.8,7.03,-9.67,-12.25,0,*4B
1534806373.38,18264,22.0,74570.8,7.03,-9.75,-12.25,0,*4F
1534806374.6,18265,22.0,74566.8,6.99,-9.67,-12.25,0,*4F
1534806375.85,18266,22.0,74570.3,7.03,-9.61,-12.21,0,*4C
1534806377.06,18267,22.0,74574.0,7.03,-9.67,-12.25,0,*4F
1534806378.28,18268,22.0,74574.3,6.99,-9.67,-12.29,0,*4E
1534806379.55,18269,22.0,74570.5,6.99,-9.53,-12.15,0,*47
1534806380.77,18270,22.0,74570.8,6.99,-9.71,-12.25,0,*4C
1534806381.99,18271,22.0,74568.8,7.03,-9.75,-12.43,0,*4B
1534806383.22,18272,22.0,74572.0,7.03,-9.75,-12.29,0,*44
1534806384.47,18273,22.0,74568.0,6.99,-9.79,-12.35,0,*46
1534806385.72,18274,22.0,74570.8,6.99,-9.79,-12.35,0,*41
1534806386.96,18275,22.0,74568.8,6.99,-9.83,-12.47,0,*40
1534806388.22,18276,22.0,74570.0,6.99,-9.83,-12.35,0,*46
1534806389.46,18277,22.0,74572.8,6.99,-9.83,-12.47,0,*42
1534806390.7,18278,22.0,74574.5,6.99,-9.83,-12.47,0,*4D
1534806391.93,18279,22.0,74570.3,7.03,-9.79,-12.29,0,*43
1534806393.17,18280,22.0,74568.5,6.99,-9.79,-12.61,0,*4B
1534806394.43,18281,22.0,74574.3,6.99,-9.83,-12.57,0,*4A
1534806395.64,18282,22.0,74572.0,6.97,-9.93,-12.61,0,*43
1534806396.88,18283,22.0,74574.3,6.99,-9.93,-12.61,0,*4C
1534806398.15,18284,22.0,74570.0,6.99,-9.83,-12.61,0,*4A
1534806399.41,18285,22.0,74568.0,6.99,-9.83,-12.61,0,*4B
1534806400.62,18286,22.0,74574.8,6.97,-9.97,-12.65,0,*47
1534806401.82,18287,22.0,74572.3,6.97,-9.89,-12.65,0,*49
1534806403.03,18288,22.0,74572.0,6.97,-10.01,-12.65,0,*7E
1534806404.24,18289,22.0,74576.5,6.97,-9.97,-12.61,0,*4C
1534806405.45,18290,22.0,74572.0,6.97,-9.83,-12.39,0,*4C
1534806406.7,18291,22.0,74570.5,6.99,-9.79,-12.35,0,*4A
1534806407.94,18292,22.0,74572.3,6.97,-9.83,-12.53,0,*42
1534806409.16,18293,22.0,74574.5,6.99,-9.79,-12.47,0,*4D
1534806410.37,18294,22.0,74570.8,6.97,-9.89,-12.61,0,*4F
1534806411.61,18295,22.0,74566.8,6.99,-9.83,-12.47,0,*4E
1534806412.81,18296,22.0,74570.8,6.97,-9.89,-12.61,0,*4D
1534806414.03,18297,22.0,74568.5,6.99,-9.67,-12.25,0,*42
1534806415.25,18298,22.0,74572.3,6.97,-9.75,-12.35,0,*41
1534806416.52,18299,22.0,74574.5,7.03,-9.61,-12.11,0,*4F
1534806417.78,18300,22.0,74574.5,7.03,-9.57,-12.11,0,*4B
1534806419.0,18301,22.0,74574.3,7.03,-9.75,-12.43,0,*4D
1534806420.24,18302,22.0,74576.3,6.99,-9.93,-12.61,0,*44
1534806421.48,18303,22.0,74572.8,6.99,-10.05,-12.61,0,*72
1534806422.72,18304,22.0,74572.0,6.99,-9.83,-12.47,0,*47
1534806423.96,18305,22.0,74572.0,6.99,-9.93,-12.57,0,*46
1534806425.2,18306,22.0,74570.8,6.99,-9.93,-12.61,0,*40
1534806426.44,18307,22.0,74570.0,6.99,-9.97,-12.61,0,*45
1534806427.68,18308,22.0,74570.3,7.03,-9.93,-12.57,0,*49
1534806428.93,18309,22.0,74568.0,7.03,-10.05,-12.71,0,*7B
1534806430.18,18310,22.0,74570.3,6.99,-10.09,-12.75,0,*79
1534806431.43,18311,22.0,74570.8,6.99,-10.09,-12.71,0,*7C
1534806432.68,18312,22.0,74568.0,6.99,-10.19,-12.83,0,*73
1534806433.94,18313,22.0,74566.8,7.03,-10.15,-12.71,0,*71
1534806435.17,18314,22.0,74568.5,6.99,-10.23,-12.89,0,*76
1534806436.39,18315,22.0,74568.8,6.99,-10.45,-12.89,0,*77
1534806437.64,18316,22.0,74574.8,6.99,-10.35,-12.83,0,*79
1534806438.87,18317,22.0,74570.0,6.99,-10.45,-12.89,0,*75
1534806440.1,18318,22.0,74576.0,6.99,-10.31,-12.89,0,*79
1534806441.35,18319,22.0,74572.0,6.99,-10.35,-12.83,0,*76
1534806442.57,18320,22.0,74574.0,7.03,-10.45,-12.93,0,*78
1534806443.8,18321,22.0,74570.3,6.99,-10.45,-12.97,0,*7F
1534806445.05,18322,22.0,74574.8,6.99,-10.35,-13.01,0,*75
1534806446.28,18323,22.0,74574.0,7.03,-10.31,-12.93,0,*78
1534806447.5,18324,22.0,74572.3,6.97,-10.41,-12.93,0,*74
1534806448.69,18325,22.0,74574.0,6.97,-10.49,-12.89,0,*76
1534806449.89,18326,22.0,74576.5,6.97,-10.49,-12.93,0,*7E
1534806451.11,18327,22.0,74572.5,6.97,-10.49,-13.01,0,*75
1534806452.33,18328,22.0,74576.3,6.99,-10.45,-12.97,0,*76
1534806453.56,18329,22.0,74578.5,6.99,-10.35,-12.89,0,*7F
1534806454.78,18330,22.0,74570.8,6.97,-10.41,-12.89,0,*7A
1534806456.01,18331,22.0,74574.3,6.99,-10.45,-12.89,0,*71
1534806457.23,18332,22.0,74574.0,6.99,-10.45,-12.97,0,*7D
1534806458.46,18333,22.0,74574.0,6.97,-10.67,-13.15,0,*79
1534806459.64,18334,22.0,74574.5,6.97,-10.53,-13.07,0,*7A
1534806460.89,18335,22.0,74572.8,6.97,-10.63,-13.01,0,*7E
1534806462.07,18336,22.0,74576.3,6.97,-10.53,-13.07,0,*78
1534806463.32,18337,22.0,74572.3,6.97,-10.63,-13.01,0,*7C
1534806464.54,18338,22.0,74574.5,6.97,-10.63,-13.07,0,*75
1534806465.73,18339,22.0,74574.3,6.97,-10.53,-12.93,0,*7B
1534806466.95,18340,22.0,74572.0,6.97,-10.63,-13.15,0,*79
1534806468.19,18341,22.0,74574.0,6.97,-10.67,-13.19,0,*70
1534806469.41,18342,22.0,74572.3,6.97,-10.63,-13.07,0,*78
1534806470.63,18343,22.0,74574.3,6.97,-10.63,-13.07,0,*79
1534806471.82,18344,22.0,74572.3,6.97,-10.53,-12.93,0,*71
1534806473.04,18345,22.0,74574.5,6.97,-10.67,-13.07,0,*7B
1534806474.29,18346,22.0,74572.3,6.99,-10.75,-13.11,0,*72
1534806475.54,18347,22.0,74574.0,6.97,-10.67,-13.01,0,*7F
1534806476.76,18348,22.0,74572.8,6.97,-10.71,-13.15,0,*72
1534806478.01,18349,22.0,74574.5,6.99,-10.63,-13.07,0,*7D
1534806479.26,18350,22.0,74568.8,6.97,-10.67,-13.01,0,*79
1534806480.48,18351,22.0,74572.3,6.97,-10.71,-13.07,0,*79
1534806481.72,18352,22.0,74572.0,6.97,-10.67,-13.01,0,*7B
1534806482.97,18353,22.0,74570.5,6.97,-10.67,-13.01,0,*7A
1534806484.22,18354,22.0,74572.3,6.97,-10.71,-13.01,0,*7A
1534806485.44,18355,22.0,74572.8,6.97,-10.71,-13.07,0,*7D
1534806486.65,18356,22.0,74574.3,6.97,-10.79,-13.15,0,*75
1534806487.84,18357,22.0,74574.0,6.97,-10.85,-13.15,0,*77
1534806489.06,18358,22.0,74574.5,6.97,-10.79,-13.07,0,*78
1534806490.3,18359,22.0,74572.0,6.97,-10.71,-13.01,0,*77
1534806491.53,18360,22.0,74572.3,6.97,-10.67,-13.07,0,*7C
1534806492.75,18361,22.0,74572.8,6.97,-10.79,-13.19,0,*7D
1534806493.97,18362,22.0,74572.8,6.97,-10.79,-13.15,0,*72
1534806495.19,18363,22.0,74574.5,6.97,-10.93,-13.29,0,*78
1534806496.44,18364,22.0,74572.8,6.97,-11.07,-13.29,0,*73
1534806497.66,18365,22.0,74572.3,6.97,-10.97,-13.29,0,*7A
1534806498.91,18366,22.0,74572.3,6.97,-11.07,-13.29,0,*71
1534806500.11,18367,22.0,74572.3,6.97,-10.97,-13.15,0,*77
1534806501.31,18368,22.0,74572.5,6.97,-10.97,-13.19,0,*74
1534806502.52,18369,22.0,74572.3,6.97,-10.93,-13.19,0,*71
1534806503.72,18370,22.0,74578.8,6.97,-10.93,-13.19,0,*79
1534806504.97,18371,22.0,74574.3,6.97,-11.07,-13.33,0,*7C
1534806506.22,18372,22.0,74574.0,6.95,-10.93,-13.01,0,*70
1534806507.43,18373,21.94,74570.3,6.95,-10.85,-13.07,0,*70
1534806508.7,18374,22.0,74572.5,6.95,-10.79,-13.01,0,*72
1534806509.95,18375,22.0,74572.0,6.95,-10.79,-12.93,0,*79
1534806511.17,18376,22.0,74574.5,6.97,-10.79,-12.89,0,*73
1534806512.39,18377,22.0,74574.5,6.97,-10.85,-13.01,0,*70
1534806513.58,18378,22.0,74574.3,6.97,-10.97,-13.15,0,*79
1534806514.81,18379,22.0,74572.8,6.99,-11.01,-13.15,0,*78
1534806516.03,18380,21.94,74570.5,6.97,-11.23,-13.33,0,*74
1534806517.25,18381,22.0,74572.8,6.97,-11.19,-13.33,0,*7C
1534806518.47,18382,22.0,74574.3,6.97,-11.23,-13.29,0,*7D
1534806519.69,18383,22.0,74568.8,6.97,-11.11,-13.29,0,*7D
1534806520.91,18384,22.0,74572.3,6.97,-11.23,-13.29,0,*7B